Location: Grand Rapids
(42.9630°N, 85.6680°W)
Time: 01:31:28
(UTC-04:00)

S-56A Canister/Altair - Pass Details

Date: 07 June 2024
Orbit: 637 x 2489 km, 38.9° (Epoch: 21 June)

Event Time Altitude Azimuth Distance (km) Brightness Sun altitude
Rises 23:58:16 0° 179° (S) 5,307 - -20.1°
Reaches altitude 10° 00:03:25 10° 161° (SSE) 4,624 - -20.5°
Maximum altitude 00:10:43 17° 127° (SE) 4,385 - -21.0°
Exits shadow 00:11:40 17° 122° (ESE) 4,425 10.9 -21.1°
Drops below altitude 10° 00:18:39 10° 94° (E) 5,132 11.5 -21.5°
Sets 00:24:48 0° 78° (ENE) 6,155 12.1 -21.9°
